Location: Splawn
(30.9202°N, 96.9858°W)
Time: 14:38:35
(UTC+00:00)

Transit 2A Rocket - Pass Details

Date: 05 March 2020
Orbit: 588 x 915 km, 66.7° (Epoch: 08 April)

Event Time Altitude Azimuth Distance (km) Brightness Sun altitude
Rises 11:37:47 0° 330° (NNW) 3,272 8.0 -16.1°
Reaches altitude 10° 11:40:09 10° 326° (NNW) 2,389 7.3 -15.6°
Maximum altitude 11:45:36 60° 248° (WSW) 973 5.2 -14.5°
Drops below altitude 10° 11:51:26 10° 170° (S) 2,550 7.8 -13.2°
Sets 11:54:01 0° 166° (SSE) 3,510 8.6 -12.7°
